EHI
3 5 6 4 1 1 1 0 0 1 0 0 0 0 1 0 1 1 1 0 0 0 0 0 0 0 0 0 0 0 0 0 0 0 0 0 0 0 0 0 0 0 0
7 8 8 5 3 3 3 1 0 1 0 0 0 0 1 1 1 1 0 0 0 0 0 0 0 0 0 0 0 0 0 0 0 0 0 0 0 0 0 0 0 0 0
13 14 11 7 5 7 7 3 1 1 0 0 0 0 1 2 2 1 0 0 0 0 0 0 0 0 0 0 0 0 0 0 0 0 0 0 0 0 0 0 0 0 0
17 16 13 8 7 9 7 4 2 1 1 1 0 0 0 1 1 0 0 0 0 0 0 0 0 0 0 0 0 0 0 0 0 0 0 0 0 0 0 0 0 0 0
17 16 13 10 9 10 8 5 6 6 3 1 0 0 0 0 0 0 0 0 0 0 0 0 0 0 0 0 0 0 0 0 0 0 0 0 0 0 0 0 0 0 0
18 16 16 16 14 11 8 8 12 11 5 1 0 0 0 0 1 1 1 1 1 1 2 2 1 0 0 0 0 0 0 0 0 0 0 0 0 0 0 0 0 0 0
21 19 19 21 17 11 8 11 14 11 5 1 0 0 0 0 2 2 2 2 3 4 5 5 4 2 1 0 0 0 0 0 0 0 0 0 0 0 0 0 0 0 0
24 21 21 20 16 11 10 11 12 9 4 1 1 0 0 0 1 2 2 2 4 6 7 7 8 7 4 2 1 0 0 0 0 0 0 0 0 0 0 0 0 0 0
24 24 23 20 16 12 11 12 12 10 5 1 0 0 0 0 0 0 1 2 5 7 5 5 9 9 8 7 5 2 0 0 0 0 0 0 0 0 0 0 0 0 0
23 25 26 26 21 16 13 12 12 12 7 2 0 0 1 1 1 0 0 1 4 6 4 3 6 8 9 11 10 6 1 0 0 0 0 0 0 0 0 0 0 0 0
23 23 28 33 29 22 18 15 14 13 8 3 0 0 1 1 1 0 0 0 2 3 3 3 4 7 9 11 11 7 2 0 0 0 0 0 0 0 0 0 0 0 0
27 24 29 38 36 31 27 24 19 15 10 6 3 1 1 1 1 0 0 0 0 2 4 5 5 6 8 9 9 6 2 1 0 0 0 0 0 0 0 0 0 0 0
32 29 33 41 42 37 34 30 26 20 16 12 8 4 3 3 3 2 1 0 0 2 4 5 6 6 7 8 7 5 3 1 0 0 0 0 0 0 0 0 0 0 0
37 38 42 45 44 39 34 33 29 24 23 19 13 10 8 7 6 5 3 2 1 1 2 4 6 9 11 11 7 4 3 1 0 0 0 0 0 0 0 0 0 0 0
39 44 46 45 42 39 37 35 31 27 26 23 19 17 14 10 9 9 8 6 3 1 1 3 8 12 14 12 6 3 3 1 0 0 0 0 0 0 0 0 0 0 0
41 44 44 41 39 39 40 38 32 29 28 25 22 20 17 12 9 10 10 9 7 4 2 3 7 11 11 8 4 2 3 1 0 0 0 0 0 0 0 0 0 0 0
43 44 43 41 38 38 40 38 33 29 27 24 22 21 19 14 11 9 10 10 9 7 4 2 3 7 10 8 5 4 2 0 0 0 0 0 0 0 0 0 0 0 0
46 45 44 41 37 35 37 37 33 28 24 22 22 22 20 17 13 10 10 10 10 9 7 3 1 6 10 10 8 5 2 0 0 0 0 0 0 0 0 0 0 0 0
46 45 43 39 35 35 36 35 33 28 25 23 23 24 22 20 17 13 12 11 10 9 8 5 2 4 8 8 7 4 1 0 0 0 0 0 0 0 0 0 0 0 0
44 43 41 37 35 35 35 35 34 30 26 24 23 23 22 20 18 15 13 12 10 9 8 6 3 3 4 5 4 2 0 0 0 0 0 0 0 0 0 0 0 0 0
42 42 39 36 34 33 32 31 31 29 27 24 23 22 20 17 14 12 11 10 9 8 7 5 3 2 1 2 3 2 0 0 0 0 0 0 0 0 0 0 0 0 0
39 39 37 34 31 28 23 19 20 24 25 24 23 21 18 12 8 6 6 5 5 6 5 5 4 2 1 3 4 3 1 0 0 0 0 0 0 0 0 0 0 0 0
35 34 33 33 30 24 16 8 8 15 20 22 22 20 16 11 7 5 4 3 3 3 3 4 4 3 1 3 5 4 2 0 0 0 0 0 0 0 0 0 0 0 0
31 31 31 32 29 22 13 5 2 8 16 19 19 17 14 11 8 7 6 5 4 3 2 2 3 3 1 2 3 2 1 0 0 0 0 0 0 0 0 0 0 0 0
31 31 31 32 29 21 12 4 2 6 14 18 17 14 12 10 8 5 6 7 6 5 3 1 1 1 0 0 1 0 0 0 0 0 0 0 0 0 0 0 0 0 0
34 33 32 32 29 21 12 4 2 7 13 17 16 12 9 8 6 4 4 6 7 6 5 2 1 0 0 0 0 0 0 0 0 0 0 0 0 0 0 0 0 0 0
Wind_Speed
3 3 2 2 3 3 3 1 2 2 2 1 2 4 4 5 7 7 6 10 9 9 9 8 8 7 7 7 7 6 6 6 6 6 6 6 6 6 6 6 5 5 5
3 3 3 2 1 2 2 2 3 3 2 1 1 2 2 4 6 8 7 7 9 8 8 8 8 7 7 7 6 6 6 6 5 6 5 5 5 5 5 5 5 5 5
4 3 3 2 2 2 2 1 2 2 2 2 2 2 2 3 4 7 7 6 6 7 8 8 7 7 7 6 6 6 6 6 5 5 5 5 5 4 5 5 4 4 4
4 3 3 3 3 3 3 2 1 2 2 2 2 1 2 2 3 4 6 6 5 6 7 8 8 7 7 7 7 6 6 6 6 5 5 5 5 5 5 5 4 4 4
4 3 2 3 3 2 2 3 2 2 2 1 2 2 2 2 2 3 4 5 5 5 5 7 8 7 7 7 7 7 6 6 6 6 6 6 5 5 5 5 5 4 4
4 3 3 3 2 2 2 2 3 2 1 2 2 2 2 3 3 2 3 4 5 6 7 7 6 6 8 7 7 7 7 7 6 6 6 6 6 5 5 5 5 5 4
5 3 3 4 2 2 2 3 2 3 2 2 1 1 1 2 3 3 3 3 4 5 6 7 5 4 5 8 7 7 7 7 7 6 6 6 6 6 6 6 6 5 5
5 5 3 3 3 2 2 2 2 1 2 2 2 1 1 1 2 4 3 4 4 4 5 7 5 5 5 4 6 9 8 8 8 7 7 6 6 5 5 5 5 5 5
5 3 5 3 3 3 3 3 3 3 1 1 1 1 1 2 2 2 4 3 3 3 3 4 6 6 6 5 6 8 9 8 8 8 8 7 6 6 6 6 6 6 6
6 5 5 4 3 3 4 4 4 3 2 2 1 1 1 1 1 1 2 3 5 4 3 4 5 5 5 5 6 10 11 9 8 9 8 8 7 7 7 7 7 6 6
6 6 5 4 4 3 4 3 3 3 2 2 2 2 2 2 2 2 2 2 3 4 4 4 3 4 6 5 6 9 12 11 10 9 8 8 8 8 8 8 8 8 7
5 6 6 5 5 4 3 3 3 4 3 2 1 1 1 2 2 2 2 3 3 3 4 4 4 4 4 6 8 12 14 13 11 10 9 8 8 9 9 9 9 9 9
6 6 6 5 5 4 4 4 4 3 4 4 3 2 2 2 1 1 1 2 2 2 3 3 4 4 4 4 5 12 13 13 12 11 10 9 9 9 9 9 10 10 10
6 7 7 6 6 6 6 5 4 5 4 4 5 4 2 3 2 2 1 1 1 1 2 3 3 4 3 4 7 11 8 13 13 12 11 10 10 9 9 9 9 9 9
5 7 8 7 6 6 5 5 4 4 4 4 4 4 3 3 2 2 1 1 1 2 2 2 2 3 3 4 8 6 5 12 13 13 12 12 11 11 10 10 10 10 10
5 6 7 7 6 6 6 5 5 5 5 5 4 4 3 3 2 2 2 2 1 1 2 1 2 2 2 4 8 5 4 11 14 14 14 13 13 12 12 12 11 11 11
6 6 7 7 7 6 6 6 6 6 6 6 5 5 5 4 3 3 2 2 2 1 2 2 1 2 3 2 4 3 4 5 7 14 15 14 14 13 13 13 12 12 11
6 6 7 7 7 7 7 7 7 7 7 7 6 5 5 5 5 3 2 2 2 2 2 2 1 1 2 3 4 4 4 5 4 11 15 15 14 14 14 13 13 12 12
7 7 7 7 8 7 7 8 7 7 7 7 7 6 6 5 5 4 4 3 2 2 2 2 2 2 2 2 3 4 4 3 5 5 12 14 14 14 14 14 13 13 12
7 7 7 7 7 7 7 8 8 7 6 6 6 5 6 5 5 5 5 4 3 2 2 2 2 2 2 3 2 2 3 3 4 5 4 8 12 14 14 14 13 13 12
8 7 7 7 7 7 8 8 8 8 7 6 6 6 6 6 7 5 5 4 4 3 2 2 3 2 2 1 2 2 3 3 3 3 2 3 5 6 8 11 13 13 13
6 6 7 7 8 8 8 9 8 6 6 7 6 6 6 8 8 8 7 5 4 4 3 2 2 2 2 1 1 2 2 2 3 2 1 3 2 3 4 4 9 13 13
6 7 7 7 7 6 8 9 9 6 6 6 6 6 7 8 9 7 8 8 6 7 7 3 3 3 2 1 1 2 2 2 3 3 2 3 3 3 2 2 5 10 12
5 5 6 6 6 7 9 9 9 7 6 5 6 6 6 4 5 5 6 6 6 5 6 6 4 3 2 1 2 2 3 3 3 3 2 3 3 3 3 2 4 7 10
5 5 5 6 7 6 9 9 9 6 5 6 6 5 5 5 5 5 4 4 3 3 5 5 5 4 3 2 1 1 2 2 4 3 1 2 3 3 2 2 3 6 8
5 5 5 6 6 6 8 10 10 5 5 5 4 3 3 4 4 5 4 3 4 3 2 3 3 4 4 4 4 3 2 3 3 3 1 1 1 2 3 2 2 2 3
Wind_Direction
143 135 136 156 176 156 154 159 127 121 97 56 57 78 82 104 121 120 130 141 140 141 142 144 146 145 143 141 141 140 140 139 138 142 141 142 143 144 143 145 143 145 151
128 135 146 150 153 133 132 153 136 131 118 90 74 84 85 103 117 128 138 148 151 152 153 156 157 157 157 156 156 153 150 147 145 146 146 148 150 154 155 154 154 156 159
141 157 146 159 151 130 118 116 131 135 143 131 105 98 90 83 110 130 144 152 158 165 167 167 167 168 169 170 170 167 163 158 155 155 157 160 164 166 164 163 165 167 170
162 172 156 161 160 156 148 144 155 115 101 112 127 121 112 115 119 141 148 156 161 164 174 178 175 175 177 176 176 175 172 170 171 171 172 175 178 176 176 177 182 182 185
171 182 148 140 172 166 157 173 136 126 131 131 157 154 151 146 146 166 145 152 157 155 160 173 177 179 182 181 180 180 179 177 178 181 182 183 185 183 185 192 197 198 197
179 182 155 152 182 155 138 110 123 131 155 174 208 151 164 152 178 155 164 155 163 168 163 162 171 187 190 186 184 186 187 187 187 189 191 193 192 190 190 195 199 203 206
176 199 158 154 191 158 158 156 147 166 198 166 129 108 220 182 182 169 185 166 176 172 161 161 175 178 180 191 192 191 193 194 193 194 199 200 200 199 201 205 205 210 212
176 188 157 176 170 159 167 157 157 179 208 173 156 146 180 271 247 198 175 186 180 169 174 174 172 172 177 172 190 193 197 200 198 200 202 205 205 202 201 203 207 210 213
186 195 168 184 169 180 175 185 179 192 212 198 194 156 155 195 208 213 204 183 166 177 188 172 178 180 180 170 172 192 198 201 202 203 202 204 204 201 199 202 207 212 217
190 192 180 181 185 188 165 198 191 192 198 217 206 192 186 172 176 190 228 193 182 186 200 197 186 178 178 170 171 178 189 196 201 206 207 206 205 205 206 210 216 220 224
195 195 183 180 192 201 174 186 162 191 201 213 214 201 204 196 225 189 204 206 204 189 194 198 178 180 182 174 174 181 184 191 198 205 210 210 210 211 214 218 226 233 236
196 201 187 184 193 198 183 184 183 195 208 221 244 255 214 199 214 207 200 199 199 203 193 184 189 189 186 179 190 185 183 188 195 202 208 211 215 216 218 223 230 238 244
192 195 194 185 193 194 193 188 192 206 199 199 216 245 258 245 222 220 211 227 209 199 188 192 192 190 196 172 179 179 184 189 195 202 207 212 217 218 220 226 234 241 247
191 183 185 186 192 195 201 190 199 204 200 201 216 216 246 258 240 244 231 229 253 239 207 202 185 182 183 159 170 177 185 193 198 203 209 214 217 220 223 228 234 240 245
192 179 183 185 190 196 201 187 206 210 189 199 219 216 227 254 242 247 254 234 219 252 248 213 181 176 167 152 162 187 186 196 200 205 211 214 217 221 225 230 234 238 242
195 179 183 186 192 196 198 199 208 206 201 202 209 216 216 253 253 236 240 245 238 233 260 247 212 165 166 170 171 196 202 193 202 207 212 214 217 221 225 230 234 236 240
191 191 190 190 194 202 201 202 211 206 205 210 218 211 208 231 256 262 247 233 226 219 237 271 262 161 163 163 166 208 213 198 204 212 214 217 220 223 226 230 233 236 239
197 196 194 197 201 203 203 206 216 212 209 210 214 218 212 217 220 248 258 255 236 209 202 245 265 233 198 189 187 216 237 233 218 208 210 216 220 223 227 231 234 237 239
198 199 197 203 207 205 204 207 211 218 214 215 212 210 213 217 211 220 233 248 255 247 202 211 242 245 222 207 193 226 251 262 266 232 208 216 222 226 228 230 232 234 237
201 204 203 205 208 208 209 210 209 215 213 218 217 209 210 211 209 213 224 223 233 247 244 228 236 241 233 214 188 220 256 248 257 266 220 211 217 223 228 229 231 231 232
206 205 207 208 209 211 215 213 210 210 207 213 216 213 215 208 209 208 223 217 224 223 232 235 238 246 245 229 219 227 254 264 254 252 255 237 213 217 225 231 233 233 231
210 205 206 209 213 219 207 202 206 214 202 208 214 215 215 208 205 205 211 212 210 221 229 244 253 262 267 261 248 258 263 280 282 278 277 280 266 231 225 213 214 219 223
210 214 211 212 217 213 199 196 202 214 211 211 216 217 229 222 198 203 207 211 218 218 213 217 246 258 273 295 290 282 277 273 266 279 295 279 284 287 280 275 219 210 216
210 215 215 214 217 214 204 202 199 212 225 223 219 219 226 231 209 206 208 209 210 211 213 213 221 238 247 256 247 250 263 274 269 268 259 263 269 269 277 275 246 224 219
214 217 218 218 218 212 207 201 192 210 222 226 223 219 214 212 202 199 212 218 211 221 211 202 199 205 213 242 268 302 291 289 284 278 261 249 268 275 265 260 254 235 228
216 220 222 224 218 207 202 197 193 212 217 217 213 210 202 191 182 183 200 210 222 235 234 205 203 224 229 229 220 214 236 258 273 280 296 286 284 311 297 281 298 304 259